Regional Weather Roundup
Issued by NWS Green Bay, WI

Home | Current Version | Previous Version | Text Only | Print | Product List | Glossary On
Versions: 1 2 3 4 5 6 7 8 9 10 11 12 13 14 15 16 17 18 19 20 21 22 23 24 25 26 27 28 29 30 31 32 33 34 35 36 37 38 39 40 41 42 43 44 45 46 47 48 49 50
000
ASUS43 KGRB 222001
RWRGRB

NORTH-CENTRAL AND NORTHEAST WISCONSIN REGIONAL WEATHER ROUNDUP
NATIONAL WEATHER SERVICE GREEN BAY WI
300 PM CDT FRI SEP 22 2017

WIZ005-009-010>012-018-019-222100-
NORTH CENTRAL WISCONSIN

CITY           SKY/WX    TMP DP  RH WIND       PRES   REMARKS
IRONWOOD       CLOUDY    72  65  78 S10G21    29.92S
MANITOWISH WTR NOT AVBL
ARBOR VITAE    NOT AVBL
EAGLE RIVER    NOT AVBL
LAND O LAKES   NOT AVBL
RHINELANDER    CLOUDY    70  67  90 SE10      30.00F
PHILLIPS       NOT AVBL
ANTIGO         NOT AVBL
TOMAHAWK       NOT AVBL
MERRILL        NOT AVBL
$$

WIZ013-073-222100-
NORTHEAST WISCONSIN

CITY           SKY/WX    TMP DP  RH WIND       PRES   REMARKS
IRON MOUNTAIN  TSTM      66  63  90 SE6       30.01F
MARINETTE      CLOUDY    78  63  59 N12       30.06R
$$

WIZ017-030-035>037-045-222100-
CENTRAL WISCONSIN

CITY           SKY/WX    TMP DP  RH WIND       PRES   REMARKS
MEDFORD        NOT AVBL
WAUSAU         PTSUNNY   76  65  68 E13       29.98R
MOSINEE        PTSUNNY   86  70  58 S12       29.99S HX  90
MARSHFIELD     SUNNY     89  64  43 S18       29.95F HX  90
WISC RAPIDS    SUNNY     91  68  46 S16G23    29.98F HX  95
STEVENS POINT  NOT AVBL
WAUPACA        NOT AVBL
SHAWANO        NOT AVBL
CLINTONVILLE   NOT AVBL
WAUTOMA        SUNNY     91  70  49 S13G21    29.97F HX  96
$$

WIZ038-039-048-051-222100-
FOX VALLEY

CITY           SKY/WX    TMP DP  RH WIND       PRES   REMARKS
NWS GREEN BAY  PTSUNNY   90  70  51 SW13      29.99S HX  95
APPLETON       MOSUNNY   90  63  40 SW15      29.99S HX  90
OSHKOSH        SUNNY     89  67  47 SW14G23   29.99F HX  92
FOND DU LAC    SUNNY     90  65  43 S12G22    30.00F HX  92
$$

WIZ022-050-052-222100-
EAST CENTRAL WISCONSIN

CITY           SKY/WX    TMP DP  RH WIND       PRES   REMARKS
EPHRAIM        NOT AVBL
WASHINGTON ISL NOT AVBL
STURGEON BAY   CLOUDY    86  71  60 S7        30.02R HX  91
MANITOWOC      CLOUDY    84  70  62 S15       30.01S
SHEBOYGAN      SUNNY     89  73  59 S10       30.01F HX  97
$$

LMZ563-521-522-541>543-222100-
LAKESHORE

STATION/POSITION TIME  TEMP    WIND        PRES    VSBY  WAVE
                       AIR SEA DIR/SP/G                  HT/PER
                 (UTC) (F)     (DEG/KT/KT) (MB)    (MI)  (FT/S)
SHEBOYGAN LKSHOR 1900   72     170/ 16/ 17 1016.1F
KEWAUNEE LKSHORE 1930   67     180/ 13/ 14 1015.5R
NORTHPORT PIER   1940   75     140/  1/  7 1017.6R
N MID LAKE BUOY  1850   69 66  190/ 16/ 17 1016.0F         2/ 4
S GREEN BAY BUOY 1900   76 69  210/  8/  8 1015.2
SISTER BAY LKSHO 1919   85     170/  9/ 10   N/A
MENOMINEE LKSHOR 1930   86     210/  8/ 12 1015.7R
$$




USA.gov is the U.S. government's official web portal to all federal, state and local government web resources and services.